Location: Pradons
(44.4746°N, 4.3578°E)
Time: 01:57:37
(UTC+00:00)

Cosmos 1908 - Pass Details

Date: 09 April 2020
Orbit: 511 x 531 km, 82.5° (Epoch: 05 June)

Event Time Altitude Azimuth Distance (km) Brightness Sun altitude
Rises 19:04:40 0° 180° (S) 2,633 6.6 -8.4°
Reaches altitude 10° 19:06:47 10° 177° (S) 1,753 5.7 -8.8°
Maximum altitude 19:10:36 65° 96° (E) 581 3.2 -9.4°
Drops below altitude 10° 19:14:29 10° 14° (NNE) 1,781 6.0 -10.1°
Sets 19:16:39 0° 12° (NNE) 2,678 7.0 -10.4°
